Home > Weather > Yazd > Past weeks

Flag for Iran Past Weather in Yazd, Iran — Yesterday and Last 2 Weeks

Now
84 °F

Clear.


Feels Like: 81 °F
Forecast: 68 / 98 °F
Wind: 5 mph from Southwest

Location: Yazd Airport

Current Time: May 28, 2016 at 12:41:06 AM

Latest Report: May 27, 2016 at 11:30 PM


Visibility: 10 mi

Pressure: 29.95 "Hg (26.10 "Hg at 1218m altitude)

Humidity: 8%

Dew Point: 18 °F

Location of YazdLocation

Past Weather in Yazd — Graph

°F

Yazd Temperature Yesterday

Maximum temperature yesterday: 99 °F (at 5:00 PM)
Minimum temperature yesterday: 72 °F (at 4:30 AM)
Average temperature yesterday: 86 °F

High & Low Weather Summary for the Past Weeks

 TemperatureHumidityPressure
High102 °F (May 20, 5:30 PM)43% (May 13, 6:30 AM)30.12 "Hg (May 13, 6:30 AM)
Low66 °F (May 13, 6:30 AM)1% (May 25, 4:00 PM)29.68 "Hg (May 25, 3:30 PM)
Average86 °F15%29.94 "Hg
* Reported May 12 11:30 PM — May 27 11:30 PM, Yazd, Weather by CustomWeather, © 2016

Note: Actual official high and low records may vary slightly from our data, if they occured in-between our weather recording intervals... More about our weather records

Advertising

Yazd Weather History for the Previous 24 Hours

Scroll right to see more
 ConditionsComfort  
Time TempWeatherWind HumidityBarometerVisibility
11:30 PM
Fri, May 27
84 °FClear.5 mph8%29.95 "Hg10 mi
11:00 PM84 °FClear.9 mph8%29.95 "Hg10 mi
10:30 PM84 °FClear.7 mph8%29.95 "Hg10 mi
10:00 PM86 °FClear.2 mph8%29.95 "Hg10 mi
9:30 PM88 °FClear.5 mph7%29.92 "Hg10 mi
9:00 PM90 °FSunny.5 mph6%29.92 "Hg10 mi
8:30 PM91 °FSunny.5 mph6%29.92 "Hg10 mi
8:00 PM93 °FSunny.2 mph5%29.89 "Hg10 mi
7:30 PM95 °FSunny.5 mph5%29.89 "Hg10 mi
7:00 PM97 °FSunny.5 mph4%29.89 "Hg10 mi
6:30 PM99 °FPassing clouds.5 mph4%29.89 "HgN/A
6:00 PM99 °FPassing clouds.5 mph4%29.89 "HgN/A
5:30 PM99 °FPassing clouds.2 mph4%29.89 "HgN/A
5:00 PM99 °FPassing clouds.5 mph4%29.89 "HgN/A
4:30 PM97 °FPassing clouds.7 mph4%29.89 "HgN/A
4:00 PM97 °FSunny.5 mph5%29.89 "Hg10 mi
3:30 PM97 °FSunny.5 mph5%29.92 "Hg10 mi
3:00 PM97 °FClear.5 mph5%29.92 "Hg6 mi
2:30 PM95 °FClear.5 mph6%29.92 "Hg4 mi
1:30 PM93 °FClear.5 mph8%29.95 "Hg4 mi
12:30 PM91 °FClear.2 mph8%29.98 "Hg5 mi
12:00 PM90 °FSunny.5 mph9%29.98 "Hg10 mi
11:30 AM88 °FSunny.5 mph11%29.98 "Hg10 mi
11:00 AM86 °FSunny.5 mph11%29.98 "Hg10 mi
10:30 AM84 °FSunny.5 mph13%29.98 "Hg10 mi
10:00 AM84 °FSunny.5 mph14%29.98 "Hg10 mi
9:30 AM81 °FSunny.5 mph16%29.98 "Hg10 mi
9:00 AM81 °FSunny.7 mph15%29.98 "Hg10 mi
8:30 AM79 °FSunny.7 mph17%29.98 "Hg10 mi
8:00 AM77 °FSunny.7 mph17%29.98 "Hg10 mi
7:30 AM75 °FSunny.5 mph19%29.95 "Hg10 mi
7:00 AM72 °FClear.2 mph19%29.95 "Hg10 mi
6:30 AM72 °FClear.2 mph20%29.95 "Hg10 mi
6:00 AM72 °FClear.7 mph17%29.92 "Hg10 mi
5:30 AM72 °FClear.5 mph16%29.92 "Hg10 mi
4:30 AM72 °FClear.5 mph15%29.89 "Hg10 mi
3:30 AM73 °FClear.2 mph14%29.89 "Hg10 mi
2:30 AM75 °FClear.No wind13%29.86 "Hg10 mi
1:30 AM79 °FClear.2 mph12%29.89 "Hg10 mi
12:30 AM79 °FClear.5 mph11%29.89 "Hg10 mi
Weather by CustomWeather, © 2016

See weather overviewHow to use our weather pages